This is the latest recevied weather packets stored in our database for station/object K7LER. If no packets are shown the sender has not sent any weather packets the latest 10 day(s).
| Time | Temp. | Humidity | Pressure | Rain* | Wind** | Luminosity | Snow |
|---|---|---|---|---|---|---|---|
| 1778092250 | 11.67° C | 88% | 1019.9 hPa | 0 mm | - | 146 W/m² | - |
| 1778091933 | 11.67° C | 88% | 1019.9 hPa | 0 mm | - | 165 W/m² | - |
| 1778091635 | 11.67° C | 88% | 1020 hPa | 0 mm | - | 146 W/m² | - |
| 1778091349 | 11.11° C | 88% | 1020.1 hPa | 0 mm | - | 139 W/m² | - |
| 1778091037 | 11.11° C | 88% | 1020 hPa | 0 mm | - | 118 W/m² | - |
| 1778090736 | 11.11° C | 89% | 1019.9 hPa | 0 mm | - | 105 W/m² | - |
| 1778090462 | 11.11° C | 90% | 1019.8 hPa | 0 mm | - | 132 W/m² | - |
| 1778090135 | 11.11° C | 90% | 1019.6 hPa | 0 mm | - | 135 W/m² | - |
| 1778089834 | 11.11° C | 90% | 1019.6 hPa | 0 mm | - | 127 W/m² | - |
| 1778089550 | 11.11° C | 90% | 1019.6 hPa | 0 mm | - | 104 W/m² | - |
| 1778089235 | 11.11° C | 91% | 1019.7 hPa | 0 mm | - | 155 W/m² | - |
| 1778088935 | 11.11° C | 92% | 1019.6 hPa | 0 mm | - | 134 W/m² | - |
| 1778088643 | 11.11° C | 92% | 1019.6 hPa | 0 mm | - | 86 W/m² | - |
| 1778088336 | 11.11° C | 92% | 1019.6 hPa | 0 mm | - | 113 W/m² | - |
| 1778088034 | 11.11° C | 92% | 1019.7 hPa | 0 mm | - | 123 W/m² | - |
| 1778087750 | 11.11° C | 92% | 1019.6 hPa | 0 mm | - | 146 W/m² | - |
| 1778087434 | 11.11° C | 92% | 1019.7 hPa | 0 mm | - | 104 W/m² | - |
| 1778087135 | 11.11° C | 93% | 1019.8 hPa | 0 mm | - | 95 W/m² | - |
| 1778086863 | 11.11° C | 93% | 1019.8 hPa | 0 mm | - | 88 W/m² | - |
| 1778086536 | 11.11° C | 92% | 1019.7 hPa | 0 mm | - | 88 W/m² | - |
| 1778086235 | 11.11° C | 93% | 1019.7 hPa | 0 mm | - | 67 W/m² | - |
| 1778085949 | 11.11° C | 93% | 1019.7 hPa | 0 mm | - | 60 W/m² | - |
| 1778085634 | 11.11° C | 92% | 1019.7 hPa | 0 mm | - | 58 W/m² | - |
| 1778085333 | 11.11° C | 92% | 1019.7 hPa | 0 mm | - | 65 W/m² | - |
| 1778085069 | 11.11° C | 92% | 1019.6 hPa | 0 mm | - | 46 W/m² | - |
* Rain latest hour (hover to see other rain measurements)
** Current wind speed in m/s (hover to see current wind gust speed)